| time (UTC) | temp F | wind direction | speed MPH | gust MPH | rain 1hr in | rain 24hr in | rain mn in | humidity % | barometer mb |
| 20260506013652 | 78 | 249 | 1.0 | 11.0 | 0.00 | 0.00 | 0.00 | 94 | 1012.4 |
| 20260506013149 | 78 | 168 | 2.0 | 5.0 | 0.00 | 0.00 | 0.00 | 94 | 1012.2 |
| 20260506012645 | 78 | 226 | 2.0 | 8.0 | 0.00 | 0.00 | 0.00 | 93 | 1012.2 |
| 20260506012142 | 78 | 184 | 3.0 | 6.0 | 0.00 | 0.00 | 0.00 | 93 | 1012.2 |
| 20260506011639 | 78 | 166 | 3.0 | 8.0 | 0.00 | 0.00 | 0.00 | 93 | 1012.2 |
| 20260506011135 | 78 | 171 | 1.0 | 10.0 | 0.00 | 0.00 | 0.00 | 93 | 1012.0 |
| 20260506010634 | 78 | 196 | 2.0 | 7.0 | 0.00 | 0.00 | 0.00 | 93 | 1012.1 |
| 20260506010131 | 78 | 211 | 1.0 | 8.0 | 0.00 | 0.00 | 0.00 | 92 | 1011.9 |
| 20260506005628 | 78 | 124 | 3.0 | 8.0 | 0.00 | 0.00 | 0.00 | 92 | 1011.7 |
| 20260506005124 | 78 | 198 | 3.0 | 12.0 | 0.00 | 0.00 | 0.00 | 92 | 1011.7 |
| 20260506004621 | 78 | 155 | 2.0 | 11.0 | 0.00 | 0.00 | 0.00 | 92 | 1011.7 |
| 20260506004118 | 78 | 259 | 4.0 | 9.0 | 0.00 | 0.00 | 0.00 | 92 | 1011.9 |
| 20260506003615 | 78 | 229 | 0.0 | 4.0 | 0.00 | 0.00 | 0.00 | 91 | 1011.6 |
| 20260506003111 | 78 | 181 | 3.0 | 6.0 | 0.00 | 0.00 | 0.00 | 92 | 1011.5 |
| 20260506002607 | 79 | 128 | 3.0 | 7.0 | 0.00 | 0.00 | 0.00 | 91 | 1011.7 |
| 20260506002103 | 79 | 216 | 2.0 | 5.0 | 0.00 | 0.00 | 0.00 | 91 | 1011.7 |
| 20260506001559 | 79 | 216 | 4.0 | 10.0 | 0.00 | 0.00 | 0.00 | 91 | 1011.7 |
| 20260506001056 | 79 | 248 | 4.0 | 9.0 | 0.00 | 0.00 | 0.00 | 91 | 1011.5 |
| 20260506000554 | 79 | 163 | 2.0 | 11.0 | 0.00 | 0.00 | 0.00 | 91 | 1011.5 |
| 20260506000051 | 79 | 122 | 1.0 | 7.0 | 0.00 | 0.00 | 0.00 | 90 | 1011.6 |
| 20260505235549 | 79 | 167 | 2.0 | 5.0 | 0.00 | 0.00 | 0.00 | 90 | 1011.8 |
| 20260505235045 | 79 | 258 | 3.0 | 6.0 | 0.00 | 0.00 | 0.00 | 90 | 1011.8 |
| 20260505234543 | 79 | 286 | 5.0 | 8.0 | 0.00 | 0.00 | 0.00 | 90 | 1011.7 |
| 20260505234039 | 79 | 235 | 0.0 | 6.0 | 0.00 | 0.00 | 0.00 | 90 | 1011.6 |
| 20260505233537 | 79 | 242 | 3.0 | 10.0 | 0.00 | 0.00 | 0.00 | 89 | 1011.6 |
| 20260505233034 | 80 | 187 | 2.0 | 6.0 | 0.00 | 0.00 | 0.00 | 89 | 1011.9 |
| 20260505232532 | 80 | 197 | 2.0 | 7.0 | 0.00 | 0.00 | 0.00 | 88 | 1011.8 |
| 20260505232029 | 80 | 200 | 1.0 | 4.0 | 0.00 | 0.00 | 0.00 | 88 | 1011.7 |
| 20260505231526 | 80 | 175 | 1.0 | 5.0 | 0.00 | 0.00 | 0.00 | 88 | 1011.7 |
| 20260505231025 | 80 | 216 | 1.0 | 11.0 | 0.00 | 0.00 | 0.00 | 88 | 1011.5 |
| 20260505230521 | 80 | 205 | 2.0 | 8.0 | 0.00 | 0.00 | 0.00 | 88 | 1012.0 |
| 20260505230018 | 80 | 251 | 4.0 | 15.0 | 0.00 | 0.00 | 0.00 | 87 | 1011.7 |
| 20260505225515 | 80 | 262 | 2.0 | 7.0 | 0.00 | 0.00 | 0.00 | 87 | 1011.7 |
| 20260505225011 | 80 | 292 | 1.0 | 6.0 | 0.00 | 0.00 | 0.00 | 87 | 1011.9 |
| 20260505224508 | 80 | 328 | 1.0 | 6.0 | 0.00 | 0.00 | 0.00 | 87 | 1011.6 |
| 20260505224005 | 80 | 218 | 3.0 | 7.0 | 0.00 | 0.00 | 0.00 | 88 | 1011.5 |
| 20260505223502 | 80 | 239 | 1.0 | 4.0 | 0.00 | 0.00 | 0.00 | 88 | 1011.7 |
| 20260505222958 | 80 | 261 | 3.0 | 4.0 | 0.00 | 0.00 | 0.00 | 88 | 1011.8 |
| 20260505222455 | 80 | 64 | 0.0 | 6.0 | 0.00 | 0.00 | 0.00 | 88 | 1011.8 |
| 20260505221950 | 80 | 254 | 3.0 | 5.0 | 0.00 | 0.00 | 0.00 | 89 | 1011.8 |
| 20260505221448 | 80 | 135 | 3.0 | 8.0 | 0.00 | 0.00 | 0.00 | 89 | 1012.1 |
| 20260505220945 | 80 | 186 | 2.0 | 8.0 | 0.00 | 0.00 | 0.00 | 89 | 1011.9 |
| 20260505220442 | 81 | 189 | 2.0 | 8.0 | 0.00 | 0.00 | 0.00 | 88 | 1011.7 |
| 20260505215939 | 81 | 210 | 2.0 | 10.0 | 0.00 | 0.00 | 0.00 | 88 | 1012.1 |
| 20260505215438 | 81 | 197 | 0.0 | 5.0 | 0.00 | 0.00 | 0.00 | 88 | 1012.2 |
| 20260505214935 | 81 | 225 | 1.0 | 4.0 | 0.00 | 0.00 | 0.00 | 88 | 1012.0 |
| 20260505214433 | 81 | 297 | 1.0 | 5.0 | 0.00 | 0.00 | 0.00 | 88 | 1012.2 |
| 20260505213930 | 81 | 269 | 0.0 | 8.0 | 0.00 | 0.00 | 0.00 | 87 | 1012.5 |
| 20260505213427 | 82 | 233 | 1.0 | 7.0 | 0.00 | 0.00 | 0.00 | 86 | 1012.3 |
| 20260505212923 | 82 | 248 | 2.0 | 6.0 | 0.00 | 0.00 | 0.00 | 86 | 1012.3 |
| 20260505212421 | 82 | 130 | 2.0 | 5.0 | 0.00 | 0.00 | 0.00 | 87 | 1012.2 |
| 20260505211916 | 81 | 272 | 2.0 | 10.0 | 0.00 | 0.00 | 0.00 | 88 | 1012.4 |
| 20260505211414 | 80 | 255 | 5.0 | 6.0 | 0.00 | 0.00 | 0.00 | 89 | 1012.3 |
| 20260505210910 | 80 | 257 | 3.0 | 9.0 | 0.00 | 0.00 | 0.00 | 89 | 1012.6 |
| 20260505210408 | 81 | 254 | 4.0 | 11.0 | 0.00 | 0.00 | 0.00 | 88 | 1012.6 |
| 20260505205905 | 82 | 231 | 4.0 | 8.0 | 0.00 | 0.00 | 0.00 | 87 | 1012.2 |
| 20260505205403 | 81 | 274 | 2.0 | 10.0 | 0.00 | 0.00 | 0.00 | 88 | 1012.6 |
| 20260505204900 | 81 | 269 | 0.0 | 7.0 | 0.00 | 0.00 | 0.00 | 88 | 1012.9 |
| 20260505204357 | 81 | 67 | 0.0 | 8.0 | 0.00 | 0.00 | 0.00 | 88 | 1012.8 |
| 20260505203855 | 82 | 139 | 2.0 | 6.0 | 0.00 | 0.00 | 0.00 | 88 | 1012.8 |
| 20260505203351 | 82 | 233 | 0.0 | 7.0 | 0.00 | 0.00 | 0.00 | 87 | 1013.0 |
| 20260505202847 | 81 | 236 | 0.0 | 5.0 | 0.00 | 0.00 | 0.00 | 88 | 1012.8 |
| 20260505202343 | 80 | 225 | 3.0 | 5.0 | 0.00 | 0.00 | 0.00 | 89 | 1013.1 |
| 20260505201840 | 80 | 228 | 2.0 | 4.0 | 0.00 | 0.00 | 0.00 | 89 | 1013.2 |
| 20260505201337 | 81 | 215 | 1.0 | 5.0 | 0.00 | 0.00 | 0.00 | 88 | 1013.2 |
| 20260505200836 | 81 | 269 | 2.0 | 7.0 | 0.00 | 0.00 | 0.00 | 87 | 1013.3 |
| 20260505200332 | 81 | 67 | 0.0 | 5.0 | 0.00 | 0.00 | 0.00 | 88 | 1013.4 |
| 20260505195828 | 81 | 227 | 3.0 | 5.0 | 0.00 | 0.00 | 0.00 | 89 | 1013.1 |
| 20260505195325 | 81 | 231 | 2.0 | 8.0 | 0.00 | 0.00 | 0.00 | 88 | 1013.2 |
| 20260505194822 | 81 | 199 | 2.0 | 12.0 | 0.00 | 0.00 | 0.00 | 88 | 1013.3 |
| 20260505194319 | 82 | 221 | 1.0 | 6.0 | 0.00 | 0.00 | 0.00 | 87 | 1013.3 |
| 20260505193814 | 82 | 163 | 2.0 | 3.0 | 0.00 | 0.00 | 0.00 | 88 | 1013.5 |
| 20260505193313 | 81 | 271 | 3.0 | 6.0 | 0.00 | 0.00 | 0.00 | 87 | 1013.3 |
| 20260505192810 | 82 | 260 | 3.0 | 5.0 | 0.00 | 0.00 | 0.00 | 87 | 1013.4 |
| 20260505192310 | 82 | 214 | 2.0 | 5.0 | 0.00 | 0.00 | 0.00 | 88 | 1013.5 |
| 20260505191806 | 80 | 260 | 0.0 | 7.0 | 0.00 | 0.00 | 0.00 | 91 | 1013.7 |
| 20260505191304 | 79 | 155 | 2.0 | 5.0 | 0.00 | 0.00 | 0.00 | 92 | 1013.6 |
| 20260505190800 | 79 | 218 | 2.0 | 9.0 | 0.00 | 0.00 | 0.00 | 91 | 1013.5 |
| 20260505190256 | 80 | 142 | 1.0 | 6.0 | 0.00 | 0.00 | 0.00 | 91 | 1013.5 |
| 20260505185752 | 80 | 300 | 1.0 | 7.0 | 0.00 | 0.00 | 0.00 | 90 | 1013.9 |
| 20260505185248 | 80 | 123 | 1.0 | 5.0 | 0.00 | 0.00 | 0.00 | 91 | 1013.8 |
| 20260505184744 | 79 | 240 | 6.0 | 9.0 | 0.00 | 0.00 | 0.00 | 91 | 1013.6 |
| 20260505184242 | 79 | 121 | 2.0 | 4.0 | 0.00 | 0.00 | 0.00 | 92 | 1014.0 |
| 20260505183738 | 79 | 215 | 1.0 | 5.0 | 0.00 | 0.00 | 0.00 | 92 | 1013.9 |
| 20260505183236 | 79 | 208 | 3.0 | 6.0 | 0.00 | 0.00 | 0.00 | 93 | 1013.9 |
| 20260505182732 | 79 | 212 | 0.0 | 5.0 | 0.00 | 0.00 | 0.00 | 93 | 1014.0 |
| 20260505182229 | 79 | 335 | 1.0 | 3.0 | 0.00 | 0.00 | 0.00 | 94 | 1014.2 |
| 20260505181725 | 79 | 203 | 1.0 | 5.0 | 0.00 | 0.00 | 0.00 | 92 | 1014.2 |
| 20260505181223 | 79 | 237 | 2.0 | 5.0 | 0.00 | 0.00 | 0.00 | 91 | 1014.0 |
| 20260505180720 | 80 | 302 | 2.0 | 4.0 | 0.00 | 0.00 | 0.00 | 89 | 1014.0 |
| 20260505180217 | 80 | 145 | 1.0 | 4.0 | 0.00 | 0.00 | 0.00 | 89 | 1013.8 |
| 20260505175713 | 80 | 189 | 1.0 | 7.0 | 0.00 | 0.00 | 0.00 | 89 | 1013.8 |
| 20260505175209 | 80 | 156 | 2.0 | 6.0 | 0.00 | 0.00 | 0.00 | 90 | 1014.1 |
| 20260505174706 | 79 | 266 | 1.0 | 10.0 | 0.00 | 0.00 | 0.00 | 91 | 1014.0 |
| 20260505174203 | 79 | 219 | 1.0 | 7.0 | 0.00 | 0.00 | 0.00 | 91 | 1014.0 |
| 20260505173659 | 78 | 230 | 1.0 | 7.0 | 0.00 | 0.00 | 0.00 | 92 | 1014.1 |
| 20260505173155 | 79 | 317 | 2.0 | 7.0 | 0.00 | 0.00 | 0.00 | 91 | 1014.4 |
| 20260505172653 | 79 | 243 | 0.0 | 6.0 | 0.00 | 0.00 | 0.00 | 91 | 1014.0 |
| 20260505172150 | 79 | 204 | 1.0 | 11.0 | 0.00 | 0.00 | 0.00 | 91 | 1014.1 |
| 20260505171649 | 79 | 211 | 0.0 | 6.0 | 0.00 | 0.00 | 0.00 | 92 | 1014.3 |
| 20260505171147 | 80 | 199 | 2.0 | 7.0 | 0.00 | 0.00 | 0.00 | 89 | 1014.4 |
| 20260505170644 | 79 | 257 | 3.0 | 4.0 | 0.00 | 0.00 | 0.00 | 90 | 1014.4 |
| 20260505170140 | 79 | 273 | 0.0 | 3.0 | 0.00 | 0.00 | 0.00 | 91 | 1014.5 |
| 20260505165635 | 79 | 191 | 2.0 | 6.0 | 0.00 | 0.00 | 0.00 | 91 | 1014.4 |
| 20260505165132 | 78 | 129 | 6.0 | 9.0 | 0.00 | 0.00 | 0.00 | 91 | 1014.3 |
| 20260505164627 | 79 | 226 | 2.0 | 5.0 | 0.00 | 0.00 | 0.00 | 91 | 1014.3 |
| 20260505164125 | 79 | 215 | 2.0 | 10.0 | 0.00 | 0.00 | 0.00 | 90 | 1014.3 |
| 20260505163623 | 79 | 236 | 1.0 | 6.0 | 0.00 | 0.00 | 0.00 | 90 | 1014.2 |
| 20260505163120 | 79 | 222 | 0.0 | 4.0 | 0.00 | 0.00 | 0.00 | 89 | 1014.2 |
| 20260505162617 | 79 | 149 | 1.0 | 5.0 | 0.00 | 0.00 | 0.00 | 89 | 1014.2 |
| 20260505162115 | 79 | 260 | 1.0 | 4.0 | 0.00 | 0.00 | 0.00 | 89 | 1014.3 |
| 20260505161612 | 79 | 250 | 2.0 | 5.0 | 0.00 | 0.00 | 0.00 | 90 | 1014.4 |
| 20260505161109 | 79 | 213 | 1.0 | 5.0 | 0.00 | 0.00 | 0.00 | 90 | 1014.3 |
| 20260505160607 | 78 | 226 | 3.0 | 7.0 | 0.00 | 0.00 | 0.00 | 89 | 1014.1 |
| 20260505160104 | 79 | 84 | 2.0 | 5.0 | 0.00 | 0.00 | 0.00 | 88 | 1014.0 |
| 20260505153044 | 80 | 184 | 1.0 | 4.0 | 0.00 | 0.00 | 0.00 | 86 | 1013.9 |
| 20260505152540 | 79 | 244 | 0.0 | 8.0 | 0.00 | 0.00 | 0.00 | 87 | 1014.0 |
| 20260505152036 | 79 | 272 | 4.0 | 5.0 | 0.00 | 0.00 | 0.00 | 87 | 1013.8 |
| 20260505151531 | 79 | 255 | 0.0 | 3.0 | 0.00 | 0.00 | 0.00 | 88 | 1013.9 |
| 20260505151029 | 79 | 190 | 2.0 | 7.0 | 0.00 | 0.00 | 0.00 | 88 | 1013.9 |
| 20260505150525 | 80 | 224 | 0.0 | 5.0 | 0.00 | 0.00 | 0.00 | 87 | 1013.9 |
| 20260505140450 | 77 | 225 | 3.0 | 5.0 | 0.00 | 0.00 | 0.00 | 92 | 1014.1 |
| 20260505124903 | 75 | 232 | 0.0 | 3.0 | 0.00 | 0.00 | 0.00 | 95 | 1013.7 |
| 20260505124401 | 74 | 116 | 3.0 | 6.0 | 0.00 | 0.00 | 0.00 | 95 | 1013.5 |
| 20260505123856 | 74 | 191 | 2.0 | 5.0 | 0.00 | 0.00 | 0.00 | 95 | 1013.6 |
| 20260505123353 | 74 | 195 | 0.0 | 3.0 | 0.00 | 0.00 | 0.00 | 95 | 1013.4 |
| 20260505122849 | 74 | 166 | 2.0 | 5.0 | 0.00 | 0.00 | 0.00 | 95 | 1013.3 |
| 20260505122347 | 74 | 315 | 0.0 | 4.0 | 0.00 | 0.00 | 0.00 | 95 | 1013.3 |
| 20260505121843 | 74 | 140 | 4.0 | 9.0 | 0.00 | 0.00 | 0.00 | 95 | 1013.1 |
| 20260505121340 | 74 | 154 | 3.0 | 8.0 | 0.00 | 0.00 | 0.00 | 95 | 1013.4 |
| 20260505120836 | 74 | 203 | 1.0 | 5.0 | 0.00 | 0.00 | 0.00 | 95 | 1013.4 |
| 20260505120332 | 74 | 183 | 0.0 | 3.0 | 0.00 | 0.00 | 0.00 | 95 | 1013.5 |
| 20260505115831 | 74 | 123 | 1.0 | 3.0 | 0.00 | 0.00 | 0.00 | 95 | 1013.7 |
| 20260505115329 | 74 | 142 | 0.0 | 5.0 | 0.00 | 0.00 | 0.00 | 95 | 1013.3 |
| 20260505114826 | 74 | 114 | 1.0 | 5.0 | 0.00 | 0.00 | 0.00 | 95 | 1013.4 |
| 20260505114323 | 73 | 119 | 1.0 | 5.0 | 0.00 | 0.00 | 0.00 | 95 | 1013.3 |
| 20260505113819 | 73 | 160 | 1.0 | 7.0 | 0.00 | 0.00 | 0.00 | 95 | 1013.6 |
| 20260505113315 | 73 | 132 | 0.0 | 7.0 | 0.00 | 0.00 | 0.00 | 95 | 1013.1 |
| 20260505112811 | 73 | 222 | 4.0 | 5.0 | 0.00 | 0.00 | 0.00 | 95 | 1013.4 |
| 20260505112309 | 73 | 234 | 0.0 | 3.0 | 0.00 | 0.00 | 0.00 | 95 | 1013.2 |
| 20260505111805 | 73 | 192 | 1.0 | 3.0 | 0.00 | 0.00 | 0.00 | 95 | 1013.4 |
| 20260505111300 | 73 | 152 | 0.0 | 3.0 | 0.00 | 0.00 | 0.00 | 95 | 1013.3 |
| 20260505110756 | 73 | 261 | 0.0 | 3.0 | 0.00 | 0.00 | 0.00 | 95 | 1013.5 |
| 20260505110254 | 73 | 175 | 0.0 | 3.0 | 0.00 | 0.00 | 0.00 | 94 | 1013.6 |
| 20260505101728 | 73 | 100 | 0.0 | 4.0 | 0.00 | 0.00 | 0.00 | 94 | 1013.3 |
| 20260505101224 | 73 | 179 | 2.0 | 6.0 | 0.00 | 0.00 | 0.00 | 94 | 1013.3 |
| 20260505100720 | 73 | 129 | 3.0 | 3.0 | 0.00 | 0.00 | 0.00 | 94 | 1013.1 |
| 20260505100217 | 73 | 125 | 5.0 | 9.0 | 0.00 | 0.00 | 0.00 | 94 | 1013.3 |
| 20260505095712 | 73 | 221 | 1.0 | 4.0 | 0.00 | 0.00 | 0.00 | 94 | 1013.2 |
| 20260505095211 | 73 | 178 | 2.0 | 4.0 | 0.00 | 0.00 | 0.00 | 94 | 1013.3 |
| 20260505094706 | 73 | 233 | 2.0 | 4.0 | 0.00 | 0.00 | 0.00 | 94 | 1013.3 |
| 20260505094203 | 73 | 242 | 0.0 | 5.0 | 0.00 | 0.00 | 0.00 | 94 | 1013.5 |
| 20260505093659 | 73 | 127 | 0.0 | 2.0 | 0.00 | 0.00 | 0.00 | 94 | 1013.6 |
| 20260505093157 | 73 | 131 | 1.0 | 3.0 | 0.00 | 0.00 | 0.00 | 94 | 1013.6 |
| 20260505092653 | 73 | 212 | 1.0 | 3.0 | 0.00 | 0.00 | 0.00 | 94 | 1013.5 |
| 20260505092152 | 73 | 209 | 0.0 | 3.0 | 0.00 | 0.00 | 0.00 | 94 | 1013.6 |
| 20260505091649 | 73 | 224 | 0.0 | 2.0 | 0.00 | 0.00 | 0.00 | 94 | 1013.5 |
| 20260505091147 | 73 | 217 | 1.0 | 4.0 | 0.00 | 0.00 | 0.00 | 94 | 1013.8 |
| 20260505090644 | 73 | 230 | 1.0 | 7.0 | 0.00 | 0.00 | 0.00 | 94 | 1013.7 |
| 20260505090142 | 73 | 111 | 1.0 | 3.0 | 0.00 | 0.00 | 0.00 | 93 | 1013.6 |
| 20260505085639 | 73 | 268 | 0.0 | 5.0 | 0.00 | 0.00 | 0.00 | 93 | 1013.5 |
| 20260505085137 | 73 | 97 | 3.0 | 4.0 | 0.00 | 0.00 | 0.00 | 93 | 1013.6 |
| 20260505084635 | 73 | 154 | 0.0 | 4.0 | 0.00 | 0.00 | 0.00 | 92 | 1013.6 |
| 20260505084133 | 73 | 223 | 1.0 | 4.0 | 0.00 | 0.00 | 0.00 | 92 | 1013.5 |
| 20260505083630 | 73 | 214 | 0.0 | 5.0 | 0.00 | 0.00 | 0.00 | 92 | 1013.5 |
| 20260505083127 | 73 | 120 | 3.0 | 6.0 | 0.00 | 0.00 | 0.00 | 92 | 1013.6 |
| 20260505082623 | 73 | 304 | 0.0 | 3.0 | 0.00 | 0.00 | 0.00 | 92 | 1013.7 |
| 20260505082120 | 73 | 148 | 0.0 | 5.0 | 0.00 | 0.00 | 0.00 | 92 | 1013.6 |
| 20260505081616 | 73 | 119 | 3.0 | 5.0 | 0.00 | 0.00 | 0.00 | 92 | 1013.8 |
| 20260505081114 | 73 | 222 | 2.0 | 7.0 | 0.00 | 0.00 | 0.00 | 91 | 1013.7 |
| 20260505080609 | 73 | 240 | 0.0 | 5.0 | 0.00 | 0.00 | 0.00 | 91 | 1013.7 |
| 20260505080106 | 73 | 76 | 2.0 | 5.0 | 0.00 | 0.00 | 0.00 | 91 | 1013.8 |
| 20260505075602 | 73 | 125 | 1.0 | 9.0 | 0.00 | 0.00 | 0.00 | 91 | 1013.9 |
| 20260505075059 | 73 | 121 | 3.0 | 5.0 | 0.00 | 0.00 | 0.00 | 92 | 1013.8 |
| 20260505074556 | 73 | 118 | 2.0 | 3.0 | 0.00 | 0.00 | 0.00 | 91 | 1014.0 |
| 20260505074053 | 73 | 182 | 0.0 | 7.0 | 0.00 | 0.00 | 0.00 | 91 | 1014.0 |
| 20260505073550 | 73 | 235 | 4.0 | 5.0 | 0.00 | 0.00 | 0.00 | 91 | 1013.9 |
| 20260505073049 | 73 | 174 | 0.0 | 3.0 | 0.00 | 0.00 | 0.00 | 91 | 1014.0 |
| 20260505072549 | 73 | 207 | 0.0 | 3.0 | 0.00 | 0.00 | 0.00 | 91 | 1014.1 |
| 20260505072046 | 73 | 315 | 0.0 | 4.0 | 0.00 | 0.00 | 0.00 | 91 | 1014.0 |
| 20260505071542 | 73 | 208 | 0.0 | 5.0 | 0.00 | 0.00 | 0.00 | 91 | 1013.9 |
| 20260505071040 | 73 | 225 | 2.0 | 2.0 | 0.00 | 0.00 | 0.00 | 91 | 1014.2 |
| 20260505070537 | 73 | 89 | 0.0 | 3.0 | 0.00 | 0.00 | 0.00 | 91 | 1014.0 |
| 20260505070033 | 73 | 164 | 0.0 | 5.0 | 0.00 | 0.00 | 0.00 | 91 | 1014.1 |
| 20260505065529 | 72 | 266 | 2.0 | 4.0 | 0.00 | 0.00 | 0.00 | 91 | 1014.3 |
| 20260505065026 | 72 | 240 | 3.0 | 4.0 | 0.00 | 0.00 | 0.00 | 91 | 1014.4 |
| 20260505064523 | 72 | 142 | 1.0 | 6.0 | 0.00 | 0.00 | 0.00 | 91 | 1014.5 |
| 20260505064021 | 72 | 158 | 1.0 | 3.0 | 0.00 | 0.00 | 0.00 | 91 | 1014.7 |
| 20260505063518 | 72 | 59 | 2.0 | 3.0 | 0.00 | 0.00 | 0.00 | 91 | 1014.5 |
| 20260505063014 | 72 | 168 | 1.0 | 4.0 | 0.00 | 0.00 | 0.00 | 92 | 1014.9 |
| 20260505062511 | 71 | 192 | 1.0 | 2.0 | 0.00 | 0.00 | 0.00 | 91 | 1014.9 |
| 20260505062008 | 72 | 150 | 0.0 | 5.0 | 0.00 | 0.00 | 0.00 | 91 | 1015.0 |
| 20260505061506 | 71 | 197 | 1.0 | 4.0 | 0.00 | 0.00 | 0.00 | 91 | 1015.1 |
| 20260505061003 | 71 | 226 | 2.0 | 3.0 | 0.00 | 0.00 | 0.00 | 91 | 1015.0 |
| 20260505060500 | 71 | 172 | 1.0 | 4.0 | 0.00 | 0.00 | 0.00 | 91 | 1014.9 |
| 20260505055956 | 72 | 242 | 0.0 | 5.0 | 0.00 | 0.00 | 0.00 | 90 | 1014.8 |
| 20260505055452 | 72 | 180 | 1.0 | 5.0 | 0.00 | 0.00 | 0.00 | 90 | 1015.0 |
| 20260505054949 | 72 | 167 | 0.0 | 2.0 | 0.00 | 0.00 | 0.00 | 90 | 1015.1 |
| 20260505054447 | 72 | 199 | 1.0 | 6.0 | 0.00 | 0.00 | 0.00 | 90 | 1015.1 |
| 20260505053945 | 72 | 238 | 2.0 | 8.0 | 0.00 | 0.00 | 0.00 | 90 | 1015.0 |
| 20260505053441 | 72 | 217 | 1.0 | 3.0 | 0.00 | 0.00 | 0.00 | 90 | 1015.1 |
| 20260505052938 | 72 | 206 | 2.0 | 9.0 | 0.00 | 0.00 | 0.00 | 89 | 1015.1 |
| 20260505052435 | 72 | 269 | 0.0 | 7.0 | 0.00 | 0.00 | 0.00 | 89 | 1015.2 |
| 20260505051932 | 72 | 166 | 0.0 | 6.0 | 0.00 | 0.00 | 0.00 | 89 | 1015.3 |
| 20260505051429 | 72 | 178 | 1.0 | 5.0 | 0.00 | 0.00 | 0.00 | 89 | 1015.2 |
| 20260505050927 | 72 | 93 | 1.0 | 6.0 | 0.00 | 0.00 | 0.00 | 89 | 1015.2 |
| 20260505050425 | 72 | 124 | 3.0 | 5.0 | 0.00 | 0.00 | 0.00 | 89 | 1015.1 |
| 20260505041353 | 72 | 197 | 0.0 | 2.0 | 0.00 | 0.00 | 0.00 | 88 | 1015.6 |
| 20260505040850 | 72 | 207 | 1.0 | 4.0 | 0.00 | 0.00 | 0.00 | 87 | 1015.6 |
| 20260505040348 | 72 | 185 | 2.0 | 6.0 | 0.00 | 0.00 | 0.00 | 87 | 1015.8 |
| 20260505035844 | 72 | 235 | 0.0 | 3.0 | 0.00 | 0.00 | 0.00 | 87 | 1015.8 |
| 20260505035340 | 72 | 182 | 3.0 | 5.0 | 0.00 | 0.00 | 0.00 | 87 | 1015.9 |
| 20260505034838 | 72 | 168 | 2.0 | 3.0 | 0.00 | 0.00 | 0.00 | 87 | 1015.7 |
| 20260505034334 | 72 | 242 | 1.0 | 5.0 | 0.00 | 0.00 | 0.00 | 86 | 1015.9 |
| 20260505033831 | 72 | 158 | 1.0 | 7.0 | 0.00 | 0.00 | 0.00 | 86 | 1015.7 |
| 20260505033328 | 72 | 161 | 3.0 | 5.0 | 0.00 | 0.00 | 0.00 | 86 | 1015.6 |
| 20260505032826 | 72 | 183 | 1.0 | 4.0 | 0.00 | 0.00 | 0.00 | 85 | 1015.6 |
| 20260505032322 | 72 | 166 | 2.0 | 5.0 | 0.00 | 0.00 | 0.00 | 85 | 1015.6 |
| 20260505031820 | 72 | 245 | 0.0 | 3.0 | 0.00 | 0.00 | 0.00 | 85 | 1015.7 |
| 20260505031316 | 72 | 129 | 2.0 | 5.0 | 0.00 | 0.00 | 0.00 | 85 | 1015.8 |
| 20260505030813 | 72 | 146 | 2.0 | 5.0 | 0.00 | 0.00 | 0.00 | 84 | 1015.7 |
| 20260505030310 | 72 | 228 | 1.0 | 4.0 | 0.00 | 0.00 | 0.00 | 84 | 1015.8 |
| 20260505025804 | 72 | 142 | 3.0 | 5.0 | 0.00 | 0.00 | 0.00 | 84 | 1015.9 |
| 20260505025304 | 73 | 141 | 3.0 | 5.0 | 0.00 | 0.00 | 0.00 | 83 | 1015.9 |
| 20260505024801 | 72 | 188 | 2.0 | 4.0 | 0.00 | 0.00 | 0.00 | 83 | 1015.7 |
| 20260505024258 | 73 | 148 | 2.0 | 5.0 | 0.00 | 0.00 | 0.00 | 83 | 1015.7 |
| 20260505023755 | 73 | 180 | 0.0 | 9.0 | 0.00 | 0.00 | 0.00 | 83 | 1015.5 |
| 20260505023252 | 73 | 199 | 0.0 | 7.0 | 0.00 | 0.00 | 0.00 | 83 | 1015.7 |
| 20260505022749 | 73 | 137 | 3.0 | 7.0 | 0.00 | 0.00 | 0.00 | 83 | 1015.7 |
| 20260505022246 | 73 | 142 | 3.0 | 5.0 | 0.00 | 0.00 | 0.00 | 82 | 1015.7 |
| 20260505021743 | 73 | 256 | 0.0 | 4.0 | 0.00 | 0.00 | 0.00 | 82 | 1015.7 |
| 20260505021240 | 73 | 190 | 2.0 | 4.0 | 0.00 | 0.00 | 0.00 | 82 | 1015.7 |
| 20260505020736 | 73 | 183 | 0.0 | 3.0 | 0.00 | 0.00 | 0.00 | 82 | 1015.5 |
| 20260505020231 | 73 | 198 | 0.0 | 3.0 | 0.00 | 0.00 | 0.00 | 81 | 1015.7 |
| 20260505015729 | 74 | 182 | 0.0 | 6.0 | 0.00 | 0.00 | 0.00 | 81 | 1015.5 |
| 20260505015225 | 74 | 155 | 2.0 | 5.0 | 0.00 | 0.00 | 0.00 | 81 | 1015.6 |
| 20260505014722 | 74 | 202 | 2.0 | 9.0 | 0.00 | 0.00 | 0.00 | 81 | 1015.5 |
| 20260505014220 | 74 | 210 | 1.0 | 7.0 | 0.00 | 0.00 | 0.00 | 80 | 1015.3 |